{"data":{"norad_id":69568,"epoch":"2026-09-19T12:22:58.169856Z","epoch_age_seconds":106707,"freshness":"FRESH","line1":"1 69568U 26135Y   26262.51595104  .00015040  00000+0  46722-3 0  9992","line2":"2 69568  97.2820 290.2780 0001103  71.5115 288.6248 15.33447576 14858","mean_motion":15.33447576,"eccentricity":0.0001103,"inclination_deg":97.282,"raan_deg":290.278,"arg_perigee_deg":71.5115,"mean_anomaly_deg":288.6248,"bstar":0.00046722,"rev_number":1485,"period_min":93.906046906164,"perigee_km":464.78065304736,"apogee_km":466.2903672031,"semimajor_km":6843.6725101252,"source":"CELESTRAK","updated_at":"2026-09-20T09:00:44.246291Z"}}